Retour au catalogue

GLOBAL-5

ActifCommunicationsVLEO
NORAD 55983·PAYLOAD·🇺🇸 United States

Lancé Mar 24, 2023 depuis Rocket Lab Launch Complex 1

Loading…

Prochains Passages (prochaines 24 heures)

TLE

FraisSource: Space-Track

Époque: Sep 14, 2026, 14:31 UTC

1 55983U 23041C   26257.60526071  .00011784  00000-0  30922-3 0  9999
2 55983  42.0013  39.8350 0008086 255.0598 104.9347 15.38515426195706

Suivez GLOBAL-5 en temps réel avec AllMySat

Download on the App Store